Other Public Products
Issued by NWS Grand Forks, ND

Home | Current Version | Previous Version | Graphics & Text | Print | Product List | Glossary On
Versions: 1 2 3 4 5 6 7 8 9 10 11 12 13 14 15 16 17 18 19 20 21 22 23 24 25 26 27 28 29 30 31 32 33 34 35 36 37 38 39 40 41 42 43 44 45 46 47 48 49 50
000
FPUS83 KFGF 242310
OPUFGF
PRAIRIE TO PINES WEATHER ROUNDUP
NATIONAL WEATHER SERVICE EASTERN NORTH DAKOTA/GRAND FORKS ND
600 PM CDT SUN JUL 24 2016

 **SATELLITE DATA USED TO AUGMENT SKY COVER AT AUTOMATED STATIONS**
 *****  WEATHER ACROSS EASTERN NORTH DAKOTA  *****

CITY           SKY/WX    TMP DP  RH WIND       PRES   REMARKS
GRAND FORKS    MOSUNNY   79  61  53 W13       29.90R
GRAND FORKS AF SUNNY     80  59  48 W15G22    29.92R
GRAND CITY NWS   N/A     79 N/A N/A NW7         N/A
BUXTON           N/A     80  60  49 NW14G26     N/A
DEVILS LAKE    SUNNY     77  57  50 NW17      29.96S
FARGO          SUNNY     81  55  40 W18G24    29.94R
WAHPETON ARPT  PTCLDY    79  54  41 NW16      29.96S
$$

 *****  WEATHER ACROSS CENTRAL AND WESTERN NORTH DAKOTA  *****

CITY           SKY/WX    TMP DP  RH WIND       PRES   REMARKS
JAMESTOWN      SUNNY     79  57  46 NW20      29.98S
BISMARCK       SUNNY     84  54  35 W9        30.02S
MINOT          SUNNY     84  56  38 W13       29.99S
MINOT AFB      SUNNY     80  56  45 NW12      29.98S
GARRISON         N/A     81  53  37 NW13G22   30.02S
WILLISTON      MOSUNNY   86  50  28 W9        30.00S
DICKINSON      SUNNY     83  48  29 NW8       30.04F
HETTINGER      PTSUNNY   89  44  20 VRB6      30.07F
$$

 *****  OTHER OBSERVATIONS NORTHEAST NORTH DAKOTA  *****

CITY           SKY/WX    TMP DP  RH WIND       PRES   REMARKS
WALHALLA       NOT AVBL
LANGDON        FAIR      75  63  64 W12G21    29.94S
CAVALIER       FAIR      77  59  53 W12G18    29.89R
GRAFTON        FAIR      81  63  54 W18       29.91R
CANDO          NOT AVBL
FORT TOTTEN    NOT AVBL
ROLLA            N/A     75  55  50 W17G25    29.97S
RUGBY          NOT AVBL
 ***** THE ABOVE OBSERVATIONS ARE NON NWS ARE NOT QUALITY
        CONTROLLED AND MAY MIS-REPORT RAIN FOR SNOW...
$$

 *****  OTHER OBSERVATIONS SOUTHEAST NORTH DAKOTA *****

CITY           SKY/WX    TMP DP  RH WIND       PRES   REMARKS
COOPERSTOWN    NOT AVBL
VALLEY CITY    FAIR      79  57  47 NW17G23   30.00S
OAKES            N/A    N/A N/A N/A MISG        N/A
GWINNER        FAIR      81  55  41 W10       29.99S
BUFFALO          N/A     78  49  36 NW14        N/A
WYNDMERE       NOT AVBL
 ***** THE ABOVE OBSERVATIONS ARE NON NWS ARE NOT QUALITY
       CONTROLLED AND MAY MIS-REPORT RAIN FOR SNOW...
$$

  *****  WEATHER ACROSS NORTHERN MINNESOTA  *****

CITY           SKY/WX    TMP DP  RH WIND       PRES   REMARKS
FLAG ISLAND    CLOUDY    70  61  73 W17       29.82R
WARROAD        SUNNY     75  63  64 W15G23    29.85R
ROSEAU         SUNNY     75  64  69 NW13G20   29.86R
HALLOCK        MOSUNNY   79  61  53 W14G20    29.87R
THF RVR FALLS  PTSUNNY   78  63  59 NW12      29.91R
HALSTAD        NOT AVBL
FOSSTON        SUNNY     77  57  50 W16       29.93R
BAUDETTE       MOSUNNY   76  60  57 W16G22    29.84R
WASKISH        SUNNY     79  63  57 W14G24    29.87R
CROOKSTON      MOSUNNY   77  64  65 NW9       29.91R
$$
  *****  WEATHER ACROSS CENTRAL AND WEST MINNESOTA  *****

CITY           SKY/WX    TMP DP  RH WIND       PRES   REMARKS
BEMIDJI        MOSUNNY   77  59  53 NW20      29.90S
PARK RAPIDS    PTSUNNY   79  58  48 W17       29.92S
WADENA         MOSUNNY   75  61  60 W10G17    29.94S
DETROIT LAKES  SUNNY     77  59  53 W15G21    29.96S
MOORHEAD       SUNNY     81  55  41 W18G26    29.95R
FERGUS FALLS   MOSUNNY   79  59  50 NW15      29.97R
ELBOW LAKE     FAIR      78  60  53 NW12      29.97F
MORRIS MN      MOSUNNY   82  61  47 NW14      29.97R
STAPLES        MOSUNNY   79  57  47 W13G18    29.94S
WHEATON        SUNNY     82  61  47 W10G18    29.99S
$$
  *****  WEATHER ELSEWHERE ACROSS MINNESOTA  *****

CITY           SKY/WX    TMP DP  RH WIND       PRES   REMARKS
DULUTH         CLOUDY    80  60  50 W17       29.87R
INTRNTL FALLS  PTSUNNY   76  60  57 W13G20    29.82R
ELY            PTSUNNY   77  59  53 W13       29.83R
CLOQUET        MOSUNNY   81  55  41 W14G21    29.88S
BRAINERD       MOSUNNY   79  60  52 W12       29.92S
HIBBING        SUNNY     77  57  50 W9G18     29.86S
ALEXANDRIA     MOSUNNY   80  56  43 W14G23    29.98S
SAINT CLOUD    CLOUDY    79  64  60 W13       29.94S
MINNEAPOLIS    CLOUDY    83  63  50 W15       29.93F
$$

  *****  WEATHER ACROSS SOUTH DAKOTA  *****

CITY           SKY/WX    TMP DP  RH WIND       PRES   REMARKS
SIOUX FALLS    CLOUDY    78  63  59 NW10      30.04R
BROOKINGS      SUNNY     78  62  57 NW10      30.03F
WATERTOWN      SUNNY     83  56  39 NW13      30.02S
HURON          MOSUNNY   84  58  40 CALM      30.02S
SISSETON         N/A     82  56  40 NW13      29.97S
ABERDEEN       SUNNY     84  56  38 NW16      30.01S
MITCHELL       SUNNY     82  59  45 N6        30.04F
PIERRE         SUNNY     87  48  25 VRB6      30.03F
MOBRIDGE       SUNNY     89  50  26 NW8       30.02S
RAPID CITY     SUNNY     87  47  24 S9G18     30.08F
$$

  *****  SOME WEATHER IN NEARBY STATES *****

CITY           SKY/WX    TMP DP  RH WIND       PRES   REMARKS
GLASGOW MT     SUNNY     87  45  23 VRB6      29.97F
GREAT FALLS MT SUNNY     85  32  15 W8        30.03F
CHEYENNE WY    CLOUDY    73  54  51 SE13      30.20F
SCOTTSBLUFF NE CLOUDY    82  53  36 E17G25    30.09S
OMAHA NE       CLOUDY    84  68  58 N3        30.01S
DES MOINES IA  CLOUDY    84  65  52 N9        29.98R
DAVENPORT IA   PTSUNNY   88  80  77 W9        29.89S HX 104
CHICAGO IL     TSTM      83  63  50 NW17G32   29.86R
EAU CLAIRE WI  SUNNY     83  62  49 W16       29.90R
LA CROSSE WI   MOSUNNY   85  66  53 NW13      29.90R
$$

  *****  SOME NATIONAL WEATHER *****

CITY           SKY/WX    TMP DP  RH WIND       PRES   REMARKS
LA GUARDIA NY  PTSUNNY   87  65  47 S10       29.92S
RALEIGH NC     PTSUNNY   92  72  51 S7        29.99S HX  99
ATLANTA GA     MOSUNNY   93  63  36 SW5       30.01F HX  94
NEW ORLEANS LA CLOUDY    83  78  85 MISG      29.95R HX  93
OKLAHOMA CITY  MOSUNNY   98  66  34 S10       29.91F HX 101
ALBUQUERQUE NM CLOUDY    91  45  20 SE26G38   30.09R
SALT LAKE CITY MOSUNNY   96  32  10 NW10      30.04F HX  90
LOS ANGELES CA MOSUNNY   80  66  62 W13       29.89F
BOISE ID       SUNNY     91  32  12 N7        29.99F
SEATTLE WA     SUNNY     80  54  40 NW12      30.07F
$$

*** WEATHER ACROSS MANITOBA...SASKATCHEWAN AND ONTARIO ***
                ***ONTARIO***

CITY           SKY/WX    TMP DP  RH WIND       PRES   REMARKS
GERALDTON      PTSUNNY   73  66  78 S6        29.66S
THUNDER BAY    MOSUNNY   81  61  50 W17G28    29.70R
SIOUX LOOKOUT  PTSUNNY   66  63  88 W9G18     29.72R
TORONTO        PTSUNNY   77  64  65 SE9       29.94R
BIG TROUT LK   CLOUDY    64  63  94 N5        29.53R
PICKLE LAKE    LGT RAIN  66  64  94 W6        29.62R
DRYDEN         MOSUNNY   73  61  64 W18G25    29.75S
KENORA         PTSUNNY   70  61  73 W15G22    29.81R
$$
                *** MANITOBA***

CITY           SKY/WX    TMP DP  RH WIND       PRES   REMARKS
BRANDON        PTSUNNY   77  61  57 NW14      29.92S
DAUPHIN        PTSUNNY   75  63  64 W14G22    29.87S
ISLAND LAKE    PTSUNNY   66  61  82 NW6       29.72R
PILOT MOUND      N/A     73  59  60 NW12        N/A
THE PAS        PTSUNNY   79  54  41 NW8       29.81R
THOMPSON       PTSUNNY   72  59  64 N5        29.77F
WINNIPEG       MOSUNNY   75  61  60 NW17G25   29.86R
LYNN LAKE      MOSUNNY   73  54  49 MISG      29.74F
CHURCHILL      MOSUNNY   57  50  77 NE8       29.82S
GILLAM         PTSUNNY   68  57  68 NE9       29.74S
$$
                ***SASKATCHEWAN***

CITY           SKY/WX    TMP DP  RH WIND       PRES   REMARKS
ESTEVAN        MOSUNNY   79  57  47 NW13      29.99F
KINDERSLEY     MOSUNNY   79  61  53 SW8       29.95F
LLOYDMINSTER   MOSUNNY   79  54  41 W14       29.89F
PRINCE ALBERT  MOSUNNY   75  54  46 W13G21    29.86S
REGINA         MOSUNNY   77  54  44 NW10      29.99S
YORKTON        SUNNY     75  57  53 NW15      29.93S
N. BATTLEFORD  SUNNY     81  50  34 W14G21    29.91F   C1F1C2F2C3F3C4F4C5F5C6F6C7F7C8F8C9F9CaFaCbFbCcFcCdFdCe!



USA.gov is the U.S. government's official web portal to all federal, state and local government web resources and services.